Weather in Rucheyki

Russia / Jewish Autonomous Oblast     47°49′17″N   131°38′27″E
temp.,
°C
wind,
m/s
gust,
m/s
humid.,
%
clouds,
%
prec.,
mm/h
press.,
hPa
HPBL,
m
4 march, thu
thu401:00−11ne2394100 0.0 101529
04:00−9ne3496100 0.7 1012114
07:00−11n3396100 1.1 101268
10:00−10n229497 1.1 101270
13:00−4ssw1392100 0.1 1012250
16:00−2ne1198100 1.0 101093
19:00−1sw2598100 0.7 1009153
22:00−2wsw2298100 0.8 100947
5 march, fri
fri501:00−3wsw3496100 0.0 100978
04:00−9wnw81381100 0.1 1011268
07:00−13nw81279100 0.0 1013404
10:00−16nw91570100 0.0 1019514
13:00−17wnw1015660 0.0 1022690
16:00−16nw914650 0.0 10251097
19:00−19nw614740 0.0 1028874
22:00−21wnw514790 0.0 1031559
6 march, sat
sat601:00−21wnw613800 0.0 1032479
04:00−21w511850 0.0 1033265
07:00−21w411860 0.0 1034261
10:00−18wnw612780 0.0 1034721
13:00−13wnw610690 0.0 1034908
16:00−10w48690 0.0 10321171
19:00−12wsw48730 0.0 1031141
22:00−14w511770 0.0 1032197
7 march, sun
sun701:00−17w45830 0.0 103187
04:00−18wsw34861 0.0 103154
07:00−18wsw338682 0.0 103051
10:00−16sw468791 0.0 1029233
13:00−13ssw3479100 0.0 1026345
16:00−11sw2476100 0.0 1024639
19:00−14wnw128494 0.0 102420
22:00−15w338479 0.0 102624
8 march, mon
mon801:00−14wnw510850 0.0 1027168
04:00−15wnw611850 0.0 1028213
07:00−15wnw611850 0.0 1029191
10:00−13w610820 0.0 1029289
13:00−9wsw58810 0.0 1028374
16:00−6sw58840 0.0 1025402
19:00−9ssw45880 0.0 102388
22:00−9sw489026 0.0 1023186